Time,TemperatureF,DewpointF,PressureIn,WindDirection,WindDirectionDegrees,WindSpeedMPH,WindSpeedGustMPH,Humidity,HourlyPrecipIn,Conditions,Clouds,dailyrainin,SolarRadiationWatts/m^2,SoftwareType,DateUTC
2013-02-07 00:02:00,12.0,6.0,-100.00,ENE,69,2.0,6.0,75,0.00,,,0.00,0.000000,,2013-02-07 05:02:00,
2013-02-07 00:12:00,12.0,6.0,-100.00,ENE,69,2.0,6.0,75,0.00,,,0.00,0.000000,,2013-02-07 05:12:00,
2013-02-07 00:21:00,12.0,6.0,-100.00,ENE,69,2.0,6.0,75,0.00,,,0.00,0.000000,,2013-02-07 05:21:00,
2013-02-07 00:52:00,14.0,7.0,-100.00,East,97,2.0,4.0,72,0.00,,,0.00,0.000000,,2013-02-07 05:52:00,
2013-02-07 01:02:00,14.0,7.0,-100.00,East,97,2.0,4.0,72,0.00,,,0.00,0.000000,,2013-02-07 06:02:00,
2013-02-07 01:11:00,14.0,7.0,-100.00,East,97,2.0,4.0,72,0.00,,,0.00,0.000000,,2013-02-07 06:11:00,
2013-02-07 01:22:00,14.0,7.0,-100.00,East,97,2.0,4.0,72,0.00,,,0.00,0.000000,,2013-02-07 06:22:00,
2013-02-07 01:53:00,15.0,9.0,-100.00,ESE,123,5.0,7.0,75,0.00,,,0.00,0.000000,,2013-02-07 06:53:00,
2013-02-07 02:02:00,15.0,9.0,-100.00,ESE,123,5.0,7.0,75,0.00,,,0.00,0.000000,,2013-02-07 07:02:00,
2013-02-07 02:11:00,15.0,9.0,-100.00,ESE,123,5.0,7.0,75,0.00,,,0.00,0.000000,,2013-02-07 07:11:00,
2013-02-07 02:22:00,15.0,9.0,-100.00,ESE,123,5.0,7.0,75,0.00,,,0.00,0.000000,,2013-02-07 07:22:00,
2013-02-07 02:52:00,19.0,10.0,-100.00,ESE,111,7.0,10.0,67,0.00,,,0.00,0.000000,,2013-02-07 07:52:00,
2013-02-07 03:02:00,19.0,10.0,-100.00,ESE,111,7.0,10.0,67,0.00,,,0.00,0.000000,,2013-02-07 08:02:00,
2013-02-07 03:11:00,19.0,10.0,-100.00,ESE,111,7.0,10.0,67,0.00,,,0.00,0.000000,,2013-02-07 08:11:00,
2013-02-07 03:22:00,19.0,10.0,-100.00,ESE,111,7.0,10.0,67,0.00,,,0.00,0.000000,,2013-02-07 08:22:00,
2013-02-07 03:52:00,20.0,11.0,-100.00,SE,124,9.0,12.0,67,0.00,,,0.00,0.000000,,2013-02-07 08:52:00,
2013-02-07 04:02:00,20.0,11.0,-100.00,SE,124,9.0,12.0,67,0.00,,,0.00,0.000000,,2013-02-07 09:02:00,
2013-02-07 04:11:00,20.0,11.0,-100.00,SE,124,9.0,12.0,67,0.00,,,0.00,0.000000,,2013-02-07 09:11:00,
2013-02-07 04:21:00,20.0,11.0,-100.00,SE,124,9.0,12.0,67,0.00,,,0.00,0.000000,,2013-02-07 09:21:00,
2013-02-07 04:52:00,19.0,10.0,-100.00,ESE,122,9.0,14.0,68,0.00,,,0.00,0.000000,,2013-02-07 09:52:00,
2013-02-07 05:02:00,19.0,10.0,-100.00,ESE,122,9.0,14.0,68,0.00,,,0.00,0.000000,,2013-02-07 10:02:00,
2013-02-07 05:11:00,19.0,10.0,-100.00,ESE,122,9.0,14.0,68,0.00,,,0.00,0.000000,,2013-02-07 10:11:00,
2013-02-07 05:22:00,19.0,10.0,-100.00,ESE,122,9.0,14.0,68,0.00,,,0.00,0.000000,,2013-02-07 10:22:00,
2013-02-07 05:52:00,18.0,10.0,-100.00,ESE,106,5.0,14.0,71,0.00,,,0.00,0.000000,,2013-02-07 10:52:00,
2013-02-07 06:02:00,18.0,10.0,-100.00,ESE,106,5.0,14.0,71,0.00,,,0.00,0.000000,,2013-02-07 11:02:00,
2013-02-07 06:11:00,18.0,10.0,-100.00,ESE,106,5.0,14.0,71,0.00,,,0.00,0.000000,,2013-02-07 11:11:00,
2013-02-07 06:23:00,18.0,10.0,-100.00,ESE,106,5.0,14.0,71,0.00,,,0.00,0.000000,,2013-02-07 11:23:00,
2013-02-07 06:53:00,18.0,10.0,-100.00,ESE,106,6.0,11.0,71,0.00,,,0.00,0.000000,,2013-02-07 11:53:00,
2013-02-07 07:02:00,18.0,10.0,-100.00,ESE,106,6.0,11.0,71,0.00,,,0.00,0.000000,,2013-02-07 12:02:00,
2013-02-07 07:12:00,18.0,10.0,-100.00,ESE,106,6.0,11.0,71,0.00,,,0.00,0.000000,,2013-02-07 12:12:00,
2013-02-07 07:22:00,18.0,10.0,-100.00,ESE,106,6.0,11.0,71,0.00,,,0.00,0.000000,,2013-02-07 12:22:00,
2013-02-07 07:53:00,18.0,10.0,-100.00,ESE,105,6.0,10.0,71,0.00,,,0.00,0.000000,,2013-02-07 12:53:00,
2013-02-07 08:03:00,18.0,10.0,-100.00,ESE,105,6.0,10.0,71,0.00,,,0.00,0.000000,,2013-02-07 13:03:00,
2013-02-07 08:12:00,18.0,10.0,-100.00,ESE,105,6.0,10.0,71,0.00,,,0.00,0.000000,,2013-02-07 13:12:00,
2013-02-07 08:22:00,18.0,10.0,-100.00,ESE,105,6.0,10.0,71,0.00,,,0.00,0.000000,,2013-02-07 13:22:00,
2013-02-07 08:52:00,19.0,11.0,-100.00,ESE,107,8.0,14.0,69,0.00,,,0.00,33.000000,,2013-02-07 13:52:00,
2013-02-07 09:02:00,19.0,11.0,-100.00,ESE,107,8.0,14.0,69,0.00,,,0.00,33.000000,,2013-02-07 14:02:00,
2013-02-07 09:12:00,19.0,11.0,-100.00,ESE,107,8.0,14.0,69,0.00,,,0.00,33.000000,,2013-02-07 14:12:00,
2013-02-07 09:22:00,19.0,11.0,-100.00,ESE,107,8.0,14.0,69,0.00,,,0.00,33.000000,,2013-02-07 14:22:00,
2013-02-07 09:52:00,20.0,10.0,-100.00,ESE,111,10.0,16.0,65,0.00,,,0.00,94.000000,,2013-02-07 14:52:00,
2013-02-07 10:02:00,20.0,10.0,-100.00,ESE,111,10.0,16.0,65,0.00,,,0.00,94.000000,,2013-02-07 15:02:00,
2013-02-07 10:11:00,20.0,10.0,-100.00,ESE,111,10.0,16.0,65,0.00,,,0.00,94.000000,,2013-02-07 15:11:00,
2013-02-07 10:22:00,20.0,10.0,-100.00,ESE,111,10.0,16.0,65,0.00,,,0.00,94.000000,,2013-02-07 15:22:00,
2013-02-07 10:52:00,23.0,12.0,-100.00,ESE,116,13.0,21.0,61,0.00,,,0.00,215.000000,,2013-02-07 15:52:00,
2013-02-07 11:01:00,23.0,12.0,-100.00,ESE,116,13.0,21.0,61,0.00,,,0.00,215.000000,,2013-02-07 16:01:00,
2013-02-07 11:11:00,23.0,12.0,-100.00,ESE,116,13.0,21.0,61,0.00,,,0.00,215.000000,,2013-02-07 16:11:00,
2013-02-07 11:22:00,23.0,12.0,-100.00,ESE,116,13.0,21.0,61,0.00,,,0.00,215.000000,,2013-02-07 16:22:00,
2013-02-07 11:52:00,25.0,12.0,-100.00,ESE,103,8.0,19.0,58,0.00,,,0.00,219.000000,,2013-02-07 16:52:00,
2013-02-07 12:01:00,25.0,12.0,-100.00,ESE,103,8.0,19.0,58,0.00,,,0.00,219.000000,,2013-02-07 17:01:00,
2013-02-07 12:11:00,25.0,12.0,-100.00,ESE,103,8.0,19.0,58,0.00,,,0.00,219.000000,,2013-02-07 17:11:00,
2013-02-07 12:21:00,25.0,12.0,-100.00,ESE,103,8.0,19.0,58,0.00,,,0.00,219.000000,,2013-02-07 17:21:00,
2013-02-07 12:52:00,27.0,13.0,-100.00,East,95,7.0,18.0,55,0.00,,,0.00,255.000000,,2013-02-07 17:52:00,
2013-02-07 13:02:00,27.0,13.0,-100.00,East,95,7.0,18.0,55,0.00,,,0.00,255.000000,,2013-02-07 18:02:00,
2013-02-07 13:12:00,27.0,13.0,-100.00,East,95,7.0,18.0,55,0.00,,,0.00,255.000000,,2013-02-07 18:12:00,
2013-02-07 13:23:00,27.0,13.0,-100.00,East,95,7.0,18.0,55,0.00,,,0.00,255.000000,,2013-02-07 18:23:00,
2013-02-07 13:52:00,28.0,14.0,-100.00,ESE,112,10.0,17.0,54,0.00,,,0.00,260.000000,,2013-02-07 18:52:00,
2013-02-07 14:02:00,28.0,14.0,-100.00,ESE,112,10.0,17.0,54,0.00,,,0.00,260.000000,,2013-02-07 19:02:00,
2013-02-07 14:11:00,28.0,14.0,-100.00,ESE,112,10.0,17.0,54,0.00,,,0.00,260.000000,,2013-02-07 19:11:00,
2013-02-07 14:22:00,28.0,14.0,-100.00,ESE,112,10.0,17.0,54,0.00,,,0.00,260.000000,,2013-02-07 19:22:00,
2013-02-07 14:52:00,29.0,14.0,-100.00,ESE,107,9.0,20.0,54,0.00,,,0.00,204.000000,,2013-02-07 19:52:00,
2013-02-07 15:01:00,29.0,14.0,-100.00,ESE,107,9.0,20.0,54,0.00,,,0.00,204.000000,,2013-02-07 20:01:00,
2013-02-07 15:11:00,29.0,14.0,-100.00,ESE,107,9.0,20.0,54,0.00,,,0.00,204.000000,,2013-02-07 20:11:00,
2013-02-07 15:22:00,29.0,14.0,-100.00,ESE,107,9.0,20.0,54,0.00,,,0.00,204.000000,,2013-02-07 20:22:00,
2013-02-07 15:52:00,29.0,14.0,-100.00,East,82,6.0,18.0,54,0.00,,,0.00,161.000000,,2013-02-07 20:52:00,
2013-02-07 16:02:00,29.0,14.0,-100.00,East,82,6.0,18.0,54,0.00,,,0.00,161.000000,,2013-02-07 21:02:00,
2013-02-07 16:11:00,29.0,14.0,-100.00,East,82,6.0,18.0,54,0.00,,,0.00,161.000000,,2013-02-07 21:11:00,
2013-02-07 16:21:00,29.0,14.0,-100.00,East,82,6.0,18.0,54,0.00,,,0.00,161.000000,,2013-02-07 21:21:00,
2013-02-07 16:52:00,28.0,14.0,-100.00,ENE,78,7.0,16.0,56,0.00,,,0.00,87.000000,,2013-02-07 21:52:00,
2013-02-07 17:02:00,28.0,14.0,-100.00,ENE,78,7.0,16.0,56,0.00,,,0.00,87.000000,,2013-02-07 22:02:00,
2013-02-07 17:11:00,28.0,14.0,-100.00,ENE,78,7.0,16.0,56,0.00,,,0.00,87.000000,,2013-02-07 22:11:00,
2013-02-07 17:22:00,28.0,14.0,-100.00,ENE,78,7.0,16.0,56,0.00,,,0.00,87.000000,,2013-02-07 22:22:00,
2013-02-07 17:52:00,28.0,14.0,-100.00,East,80,6.0,15.0,56,0.00,,,0.00,25.000000,,2013-02-07 22:52:00,
2013-02-07 18:02:00,28.0,14.0,-100.00,East,80,6.0,15.0,56,0.00,,,0.00,25.000000,,2013-02-07 23:02:00,
2013-02-07 18:11:00,28.0,14.0,-100.00,East,80,6.0,15.0,56,0.00,,,0.00,25.000000,,2013-02-07 23:11:00,
2013-02-07 18:22:00,28.0,14.0,-100.00,East,80,6.0,15.0,56,0.00,,,0.00,25.000000,,2013-02-07 23:22:00,
2013-02-07 18:52:00,28.0,14.0,-100.00,ENE,72,5.0,14.0,56,0.00,,,0.00,1.000000,,2013-02-07 23:52:00,
2013-02-07 19:02:00,28.0,14.0,-100.00,ENE,72,5.0,14.0,56,0.00,,,0.00,1.000000,,2013-02-08 00:02:00,
2013-02-07 19:11:00,28.0,14.0,-100.00,ENE,72,5.0,14.0,56,0.00,,,0.00,1.000000,,2013-02-08 00:11:00,
2013-02-07 19:22:00,28.0,14.0,-100.00,ENE,72,5.0,14.0,56,0.00,,,0.00,1.000000,,2013-02-08 00:22:00,
2013-02-07 20:52:00,26.0,14.0,-100.00,ENE,71,7.0,15.0,61,0.00,,,0.00,0.000000,,2013-02-08 01:52:00,
2013-02-07 21:01:00,26.0,14.0,-100.00,ENE,71,7.0,15.0,61,0.00,,,0.00,0.000000,,2013-02-08 02:01:00,
2013-02-07 21:11:00,26.0,14.0,-100.00,ENE,71,7.0,15.0,61,0.00,,,0.00,0.000000,,2013-02-08 02:11:00,
2013-02-07 21:22:00,26.0,14.0,-100.00,ENE,71,7.0,15.0,61,0.00,,,0.00,0.000000,,2013-02-08 02:22:00,
2013-02-07 21:52:00,26.0,16.0,-100.00,ENE,76,7.0,17.0,64,0.00,,,0.00,0.000000,,2013-02-08 02:52:00,
2013-02-07 22:02:00,26.0,16.0,-100.00,ENE,76,7.0,17.0,64,0.00,,,0.00,0.000000,,2013-02-08 03:02:00,
2013-02-07 22:12:00,26.0,16.0,-100.00,ENE,76,7.0,17.0,64,0.00,,,0.00,0.000000,,2013-02-08 03:12:00,
2013-02-07 22:22:00,26.0,16.0,-100.00,ENE,76,7.0,17.0,64,0.00,,,0.00,0.000000,,2013-02-08 03:22:00,
2013-02-07 22:52:00,25.0,18.0,-100.00,ENE,72,7.0,15.0,74,0.00,,,0.00,0.000000,,2013-02-08 03:52:00,
2013-02-07 23:02:00,25.0,18.0,-100.00,ENE,72,7.0,15.0,74,0.00,,,0.00,0.000000,,2013-02-08 04:02:00,
2013-02-07 23:11:00,25.0,18.0,-100.00,ENE,72,7.0,15.0,74,0.00,,,0.00,0.000000,,2013-02-08 04:11:00,
2013-02-07 23:21:00,25.0,18.0,-100.00,ENE,72,7.0,15.0,74,0.00,,,0.00,0.000000,,2013-02-08 04:21:00,
2013-02-07 23:52:00,26.0,19.0,-100.00,ENE,66,4.0,10.0,76,0.00,,,0.00,0.000000,,2013-02-08 04:52:00,